This is the latest recevied weather packets stored in our database for station/object DL9LAF-4. If no packets are shown the sender has not sent any weather packets the latest 10 day(s).
| Time | Temp. | Humidity | Pressure | Rain* | Wind** | Luminosity | Snow |
|---|---|---|---|---|---|---|---|
| 1777496153 | 9.44° C | 52% | 1009.4 hPa | 0 mm | - | - | - |
| 1777495553 | 10° C | 51% | 1009.4 hPa | 0 mm | - | - | - |
| 1777494953 | 10° C | 51% | 1009.2 hPa | 0 mm | - | - | - |
| 1777494353 | 10.56° C | 50% | 1009.2 hPa | 0 mm | - | - | - |
| 1777493753 | 10.56° C | 49% | 1009.2 hPa | 0 mm | - | - | - |
| 1777493153 | 11.11° C | 48% | 1009 hPa | 0 mm | - | - | - |
| 1777492553 | 11.11° C | 48% | 1008.9 hPa | 0 mm | - | - | - |
| 1777491953 | 11.67° C | 47% | 1008.9 hPa | 0 mm | - | - | - |
| 1777491353 | 12.22° C | 46% | 1008.7 hPa | 0 mm | - | - | - |
| 1777490753 | 12.78° C | 45% | 1008.7 hPa | 0 mm | - | - | - |
| 1777490153 | 13.33° C | 44% | 1008.5 hPa | 0 mm | - | - | - |
| 1777489553 | 13.89° C | 43% | 1008.7 hPa | 0 mm | - | - | - |
| 1777488953 | 14.44° C | 42% | 1008.7 hPa | 0 mm | - | - | - |
| 1777488353 | 15.56° C | 40% | 1008.5 hPa | 0 mm | - | - | - |
| 1777487753 | 16.67° C | 39% | 1008.4 hPa | 0 mm | - | - | - |
| 1777487153 | 17.22° C | 37% | 1008.2 hPa | 0 mm | - | - | - |
| 1777486553 | 18.33° C | 36% | 1008 hPa | 0 mm | - | - | - |
| 1777485953 | 18.89° C | 36% | 1008 hPa | 0 mm | - | - | - |
| 1777485353 | 18.89° C | 35% | 1007.9 hPa | 0 mm | - | - | - |
| 1777484753 | 19.44° C | 34% | 1007.7 hPa | 0 mm | - | - | - |
| 1777484153 | 20° C | 33% | 1007.7 hPa | 0 mm | - | - | - |
| 1777483553 | 20° C | 32% | 1007.7 hPa | 0 mm | - | - | - |
| 1777482952 | 20.56° C | 31% | 1007.9 hPa | 0 mm | - | - | - |
| 1777482352 | 20.56° C | 31% | 1008 hPa | 0 mm | - | - | - |
| 1777481753 | 20.56° C | 30% | 1007.7 hPa | 0 mm | - | - | - |
* Rain latest hour (hover to see other rain measurements)
** Current wind speed in m/s (hover to see current wind gust speed)